| time (UTC) | temp F | wind direction | speed MPH | gust MPH | rain 1hr in | rain 24hr in | rain mn in | humidity % | barometer mb |
| 20260901070045 | 59 | 126 | 8.0 | 10.0 | 0.00 | 0.00 | 0.00 | 55 | 1015.0 |
| 20260901064542 | 58 | 130 | 3.0 | 5.0 | 0.00 | 0.00 | 0.00 | 55 | 1015.0 |
| 20260901063039 | 59 | 130 | 4.0 | 7.0 | 0.00 | 0.00 | 0.00 | 55 | 1015.0 |
| 20260901061543 | 60 | 146 | 5.0 | 10.0 | 0.00 | 0.00 | 0.00 | 53 | 1015.1 |
| 20260901060044 | 59 | 121 | 6.0 | 8.0 | 0.00 | 0.00 | 0.00 | 54 | 1015.2 |
| 20260901054538 | 60 | 128 | 4.0 | 8.0 | 0.00 | 0.00 | 0.00 | 52 | 1015.0 |
| 20260901053042 | 60 | 121 | 4.0 | 8.0 | 0.00 | 0.00 | 0.00 | 51 | 1015.0 |
| 20260901051535 | 60 | 126 | 4.0 | 7.0 | 0.00 | 0.00 | 0.00 | 50 | 1015.3 |
| 20260901050045 | 60 | 120 | 4.0 | 8.0 | 0.00 | 0.00 | 0.00 | 49 | 1015.3 |
| 20260901044545 | 61 | 124 | 7.0 | 9.0 | 0.00 | 0.00 | 0.00 | 47 | 1015.4 |
| 20260901043106 | 60 | 113 | 7.0 | 8.0 | 0.00 | 0.00 | 0.00 | 48 | 1015.3 |
| 20260901041544 | 60 | 96 | 5.0 | 7.0 | 0.00 | 0.00 | 0.00 | 47 | 1015.2 |
| 20260901040055 | 61 | 92 | 6.0 | 8.0 | 0.00 | 0.00 | 0.00 | 47 | 1015.4 |
| 20260901034555 | 60 | 98 | 6.0 | 8.0 | 0.00 | 0.00 | 0.00 | 47 | 1015.3 |
| 20260901033104 | 60 | 86 | 4.0 | 7.0 | 0.00 | 0.00 | 0.00 | 46 | 1015.1 |
| 20260901031606 | 61 | 85 | 4.0 | 6.0 | 0.00 | 0.00 | 0.00 | 45 | 1015.1 |
| 20260901030051 | 62 | 85 | 4.0 | 6.0 | 0.00 | 0.00 | 0.00 | 44 | 1014.9 |
| 20260901024546 | 63 | 85 | 4.0 | 6.0 | 0.00 | 0.00 | 0.00 | 43 | 1015.0 |
| 20260901023059 | 64 | 85 | 4.0 | 6.0 | 0.00 | 0.00 | 0.00 | 41 | 1014.6 |
| 20260901021549 | 67 | 253 | 3.0 | 4.0 | 0.00 | 0.00 | 0.00 | 38 | 1014.9 |
| 20260901020047 | 71 | 253 | 3.0 | 4.0 | 0.00 | 0.00 | 0.00 | 34 | 1014.9 |
| 20260901014551 | 74 | 253 | 0.0 | 0.0 | 0.00 | 0.00 | 0.00 | 30 | 1015.0 |
| 20260901013051 | 76 | 253 | 0.0 | 0.0 | 0.00 | 0.00 | 0.00 | 29 | 1015.1 |
| 20260901011545 | 75 | 253 | 0.0 | 0.0 | 0.00 | 0.00 | 0.00 | 30 | 1015.2 |
| 20260901010045 | 75 | 253 | 2.0 | 7.0 | 0.00 | 0.00 | 0.00 | 31 | 1015.3 |
| 20260901004548 | 75 | 310 | 2.0 | 9.0 | 0.00 | 0.00 | 0.00 | 30 | 1015.4 |
| 20260901003100 | 75 | 263 | 7.0 | 11.0 | 0.00 | 0.00 | 0.00 | 30 | 1015.5 |
| 20260901001602 | 75 | 254 | 4.0 | 11.0 | 0.00 | 0.00 | 0.00 | 31 | 1015.5 |
| 20260901000056 | 75 | 196 | 3.0 | 6.0 | 0.00 | 0.00 | 0.00 | 31 | 1015.3 |
| 20260831234550 | 75 | 229 | 1.0 | 10.0 | 0.00 | 0.00 | 0.00 | 31 | 1015.5 |
| 20260831233046 | 75 | 313 | 1.0 | 8.0 | 0.00 | 0.00 | 0.00 | 32 | 1015.7 |
| 20260831231545 | 75 | 267 | 4.0 | 14.0 | 0.00 | 0.00 | 0.00 | 32 | 1015.7 |
| 20260831230051 | 75 | 259 | 5.0 | 16.0 | 0.00 | 0.00 | 0.00 | 32 | 1015.8 |
| 20260831224545 | 75 | 269 | 3.0 | 11.0 | 0.00 | 0.00 | 0.00 | 33 | 1015.8 |
| 20260831223044 | 74 | 285 | 3.0 | 13.0 | 0.00 | 0.00 | 0.00 | 34 | 1015.9 |
| 20260831221600 | 74 | 218 | 5.0 | 9.0 | 0.00 | 0.00 | 0.00 | 33 | 1016.2 |
| 20260831220049 | 74 | 227 | 9.0 | 17.0 | 0.00 | 0.00 | 0.00 | 34 | 1016.1 |
| 20260831214554 | 74 | 281 | 9.0 | 16.0 | 0.00 | 0.00 | 0.00 | 34 | 1016.0 |
| 20260831213055 | 73 | 242 | 9.0 | 18.0 | 0.00 | 0.00 | 0.00 | 36 | 1016.1 |
| 20260831211548 | 73 | 227 | 7.0 | 15.0 | 0.00 | 0.00 | 0.00 | 36 | 1016.0 |
| 20260831210101 | 73 | 221 | 2.0 | 13.0 | 0.00 | 0.00 | 0.00 | 36 | 1016.2 |
| 20260831204556 | 73 | 282 | 12.0 | 16.0 | 0.00 | 0.00 | 0.00 | 36 | 1016.2 |
| 20260831203105 | 72 | 249 | 9.0 | 15.0 | 0.00 | 0.00 | 0.00 | 37 | 1016.4 |
| 20260831201546 | 72 | 244 | 12.0 | 16.0 | 0.00 | 0.00 | 0.00 | 36 | 1016.6 |
| 20260831200055 | 72 | 277 | 11.0 | 15.0 | 0.00 | 0.00 | 0.00 | 37 | 1016.5 |
| 20260831194555 | 71 | 246 | 11.0 | 18.0 | 0.00 | 0.00 | 0.00 | 38 | 1016.8 |
| 20260831193047 | 71 | 307 | 8.0 | 13.0 | 0.00 | 0.00 | 0.00 | 38 | 1016.9 |
| 20260831191556 | 70 | 265 | 7.0 | 18.0 | 0.00 | 0.00 | 0.00 | 39 | 1017.1 |
| 20260831190105 | 71 | 331 | 11.0 | 17.0 | 0.00 | 0.00 | 0.00 | 39 | 1017.1 |
| 20260831184553 | 70 | 254 | 11.0 | 16.0 | 0.00 | 0.00 | 0.00 | 40 | 1017.3 |
| 20260831183052 | 70 | 286 | 10.0 | 16.0 | 0.00 | 0.00 | 0.00 | 40 | 1017.4 |
| 20260831181556 | 69 | 274 | 6.0 | 17.0 | 0.00 | 0.00 | 0.00 | 42 | 1017.4 |
| 20260831180054 | 70 | 326 | 12.0 | 17.0 | 0.00 | 0.00 | 0.00 | 41 | 1017.3 |
| 20260831174602 | 69 | 297 | 13.0 | 18.0 | 0.00 | 0.00 | 0.00 | 42 | 1017.4 |
| 20260831173128 | 69 | 296 | 11.0 | 18.0 | 0.00 | 0.00 | 0.00 | 42 | 1017.4 |
| 20260831171555 | 68 | 313 | 10.0 | 16.0 | 0.00 | 0.00 | 0.00 | 45 | 1017.4 |
| 20260831170051 | 67 | 330 | 11.0 | 16.0 | 0.00 | 0.00 | 0.00 | 47 | 1017.6 |
| 20260831164603 | 66 | 308 | 10.0 | 18.0 | 0.00 | 0.00 | 0.00 | 47 | 1017.4 |
| 20260831163103 | 66 | 310 | 11.0 | 17.0 | 0.00 | 0.00 | 0.00 | 47 | 1017.3 |
| 20260831161603 | 65 | 329 | 11.0 | 18.0 | 0.00 | 0.00 | 0.00 | 47 | 1017.3 |
| 20260831160103 | 64 | 281 | 11.0 | 19.0 | 0.00 | 0.00 | 0.00 | 48 | 1017.1 |
| 20260831154556 | 63 | 289 | 15.0 | 20.0 | 0.00 | 0.00 | 0.00 | 48 | 1017.0 |
| 20260831153041 | 62 | 299 | 15.0 | 21.0 | 0.00 | 0.00 | 0.00 | 49 | 1017.0 |
| 20260831151534 | 61 | 313 | 16.0 | 23.0 | 0.00 | 0.00 | 0.00 | 49 | 1016.9 |
| 20260831150035 | 60 | 305 | 17.0 | 22.0 | 0.00 | 0.00 | 0.00 | 50 | 1016.8 |
| 20260831144534 | 59 | 303 | 15.0 | 24.0 | 0.00 | 0.00 | 0.00 | 53 | 1016.5 |
| 20260831143035 | 57 | 277 | 13.0 | 18.0 | 0.00 | 0.00 | 0.00 | 57 | 1016.2 |
| 20260831141534 | 54 | 294 | 11.0 | 14.0 | 0.00 | 0.00 | 0.00 | 62 | 1016.1 |
| 20260831140037 | 52 | 281 | 9.0 | 13.0 | 0.00 | 0.00 | 0.00 | 67 | 1016.3 |
| 20260831134536 | 51 | 279 | 10.0 | 14.0 | 0.00 | 0.00 | 0.00 | 69 | 1015.9 |
| 20260831133038 | 50 | 286 | 10.0 | 14.0 | 0.00 | 0.00 | 0.00 | 70 | 1015.9 |
| 20260831131535 | 49 | 287 | 10.0 | 14.0 | 0.00 | 0.00 | 0.00 | 72 | 1015.7 |
| 20260831130035 | 48 | 271 | 8.0 | 13.0 | 0.00 | 0.00 | 0.00 | 72 | 1015.5 |
| 20260831124550 | 49 | 281 | 9.0 | 13.0 | 0.00 | 0.00 | 0.00 | 72 | 1015.4 |
| 20260831123034 | 49 | 284 | 12.0 | 15.0 | 0.00 | 0.00 | 0.00 | 72 | 1015.1 |
| 20260831121536 | 46 | 292 | 8.0 | 11.0 | 0.00 | 0.00 | 0.00 | 78 | 1015.3 |
| 20260831120044 | 46 | 267 | 8.0 | 12.0 | 0.00 | 0.00 | 0.00 | 76 | 1015.0 |
| 20260831114546 | 47 | 275 | 9.0 | 14.0 | 0.00 | 0.00 | 0.00 | 74 | 1015.0 |
| 20260831113036 | 48 | 284 | 11.0 | 15.0 | 0.00 | 0.00 | 0.00 | 73 | 1014.7 |
| 20260831111534 | 48 | 274 | 9.0 | 12.0 | 0.00 | 0.00 | 0.00 | 73 | 1014.8 |
| 20260831110038 | 48 | 272 | 8.0 | 12.0 | 0.00 | 0.00 | 0.00 | 73 | 1014.8 |
| 20260831104547 | 49 | 274 | 10.0 | 16.0 | 0.00 | 0.00 | 0.00 | 70 | 1014.7 |
| 20260831103037 | 49 | 280 | 12.0 | 17.0 | 0.00 | 0.00 | 0.00 | 70 | 1014.4 |
| 20260831101534 | 50 | 284 | 11.0 | 16.0 | 0.00 | 0.00 | 0.00 | 69 | 1014.1 |
| 20260831100042 | 49 | 274 | 12.0 | 16.0 | 0.00 | 0.00 | 0.00 | 70 | 1014.0 |
| 20260831094534 | 47 | 271 | 8.0 | 11.0 | 0.00 | 0.00 | 0.00 | 76 | 1014.2 |
| 20260831093041 | 47 | 250 | 2.0 | 13.0 | 0.00 | 0.00 | 0.00 | 74 | 1014.3 |
| 20260831091534 | 48 | 268 | 6.0 | 10.0 | 0.00 | 0.00 | 0.00 | 75 | 1014.3 |
| 20260831090036 | 48 | 275 | 6.0 | 9.0 | 0.00 | 0.00 | 0.00 | 74 | 1014.2 |
| 20260831084535 | 48 | 273 | 0.0 | 4.0 | 0.00 | 0.00 | 0.00 | 74 | 1014.1 |
| 20260831083044 | 48 | 273 | 0.0 | 3.0 | 0.00 | 0.00 | 0.00 | 74 | 1013.9 |
| 20260831081536 | 48 | 273 | 3.0 | 7.0 | 0.00 | 0.00 | 0.00 | 73 | 1013.7 |
| 20260831080034 | 49 | 285 | 4.0 | 8.0 | 0.00 | 0.00 | 0.00 | 71 | 1013.6 |
| 20260831074540 | 49 | 254 | 3.0 | 5.0 | 0.00 | 0.01 | 0.00 | 70 | 1013.8 |
| 20260831073051 | 51 | 263 | 6.0 | 11.0 | 0.00 | 0.01 | 0.00 | 67 | 1013.8 |
| 20260831071539 | 51 | 277 | 8.0 | 15.0 | 0.00 | 0.01 | 0.00 | 66 | 1013.8 |